Time [hr],Date,AE,AE1ch,AE2ch,Temperature,Humidity,Vaper Deficit,Illuminance,CO2,Pressure,SoilTemp,SoilWater,SolutionEC,Dielectricity,PoreEC,SoilEC,DC1ch,DC2ch,MASUA0010015,MASUA0010014,MASUA0010015
0,2023/01/01 00:00,,,,10.53,82.06,9.73,0,910,0,18.02,27.55,1.8859,14.99,2.9708,0.3991,,,
1,2023/01/01 01:00,1,1,0,10.40,82.15,9.65,0,932,0,17.85,27.55,1.8845,14.99,2.9684,0.3985,,,
2,2023/01/01 02:00,,,,10.58,82.26,9.76,0,952,0,17.53,27.46,1.8925,14.93,2.9906,0.3988,,,
3,2023/01/01 03:00,1,1,0,10.53,82.32,9.73,0,965,0,17.53,27.44,1.9132,14.92,3.0260,0.4030,,,
4,2023/01/01 04:00,1,1,0,10.56,82.38,9.75,0,984,0,17.26,27.38,1.9096,14.88,3.0269,0.4012,,,
5,2023/01/01 05:00,,,,10.82,82.66,9.91,0,1001,0,17.22,27.40,1.8955,14.89,3.0021,0.3983,,,
6,2023/01/01 06:00,1,1,0,11.70,82.83,10.47,34,1019,0,16.94,27.34,1.9135,14.85,3.0379,0.4011,,,
7,2023/01/01 07:00,1,1,0,12.48,83.53,10.99,870,1029,0,17.08,27.42,1.8966,14.91,3.0013,0.3986,,,
8,2023/01/01 08:00,,,,19.22,74.11,16.53,5659,951,0,16.72,27.33,1.9029,14.85,3.0210,0.3984,,,
9,2023/01/01 09:00,,,,25.46,66.54,23.66,8671,746,0,17.03,27.35,1.9031,14.86,3.0191,0.3992,,,
10,2023/01/01 10:00,,,,27.16,69.20,26.00,6598,620,0,17.23,27.40,1.8807,14.89,2.9789,0.3952,,,
11,2023/01/01 11:00,12,12,0,27.71,71.11,26.80,4511,584,0,17.15,27.54,1.8902,14.98,2.9786,0.3984,,,
12,2023/01/01 12:00,11,11,0,28.11,67.67,27.39,5356,580,0,17.78,27.47,1.8844,14.93,2.9773,0.3976,,,
13,2023/01/01 13:00,5,5,0,30.43,65.03,31.09,6228,606,0,17.93,27.54,1.8973,14.98,2.9897,0.4013,,,
14,2023/01/01 14:00,4,4,0,29.75,67.13,29.97,6747,621,0,18.43,27.61,1.8881,15.03,2.9673,0.4009,,,
15,2023/01/01 15:00,,,,26.84,70.84,25.54,3852,602,0,18.35,27.53,1.8716,14.97,2.9507,0.3965,,,
16,2023/01/01 16:00,,,,20.13,75.93,17.44,633,610,0,18.77,27.71,1.8784,15.09,2.9418,0.4003,,,
17,2023/01/01 17:00,,,,18.30,82.39,15.66,1,695,0,19.01,27.65,1.8729,15.05,2.9397,0.3990,,,
18,2023/01/01 18:00,1,1,0,17.06,82.76,14.55,0,751,0,18.80,27.71,1.8672,15.09,2.9240,0.3980,,,
19,2023/01/01 19:00,,,,14.04,81.63,12.11,0,763,0,19.01,27.75,1.8469,15.12,2.8880,0.3944,,,
20,2023/01/01 20:00,,,,12.18,81.88,10.80,0,773,0,19.00,27.66,1.8743,15.06,2.9408,0.3994,,,
21,2023/01/01 21:00,,,,11.36,82.29,10.25,0,776,0,18.85,27.55,1.8987,14.99,2.9908,0.4034,,,
22,2023/01/01 22:00,,,,10.75,82.65,9.87,0,772,0,18.37,27.57,1.8988,15.00,2.9890,0.4027,,,
23,2023/01/01 23:00,,,,10.27,82.14,9.57,0,781,0,18.39,27.56,1.8926,14.99,2.9803,0.4013,,,
24,2023/01/02 00:00,,,,10.77,82.79,9.88,0,809,0,18.02,27.54,1.8974,14.98,2.9897,0.4015,,,
25,2023/01/02 01:00,,,,10.94,82.81,9.99,0,821,0,18.04,27.51,1.8696,14.96,2.9491,0.3954,,,
26,2023/01/02 02:00,,,,11.04,82.62,10.05,0,835,0,17.86,27.58,1.8897,15.01,2.9731,0.3999,,,
27,2023/01/02 03:00,,,,10.87,82.38,9.94,0,841,0,17.72,27.43,1.8961,14.91,2.9996,0.3996,,,
28,2023/01/02 04:00,,,,10.75,82.49,9.87,0,863,0,17.40,27.48,1.8947,14.94,2.9923,0.3992,,,
29,2023/01/02 05:00,,,,11.11,82.88,10.09,0,878,0,17.37,27.43,1.9119,14.91,3.0252,0.4023,,,
30,2023/01/02 06:00,,,,12.11,83.51,10.75,35,896,0,17.18,27.39,1.9117,14.89,3.0287,0.4016,,,
31,2023/01/02 07:00,,,,13.30,84.48,11.57,1086,911,0,17.17,27.38,1.9162,14.88,3.0365,0.4025,,,
32,2023/01/02 08:00,,,,19.67,78.87,16.97,4936,852,0,17.26,27.38,1.8859,14.88,2.9889,0.3962,,,
33,2023/01/02 09:00,3,3,0,26.14,67.14,24.57,8573,681,0,16.96,27.40,1.8893,14.89,2.9919,0.3966,,,
34,2023/01/02 10:00,4,4,0,26.22,67.23,24.69,6681,600,0,17.24,27.43,1.9025,14.91,3.0100,0.4001,,,
35,2023/01/02 11:00,17,17,0,26.66,71.34,25.30,4799,562,0,17.31,27.44,1.9037,14.91,3.0111,0.4006,,,
36,2023/01/02 12:00,16,14,2,27.03,69.36,25.82,5786,565,0,17.66,27.50,1.9079,14.96,3.0104,0.4027,,,
37,2023/01/02 13:00,3,3,0,29.23,66.82,29.12,8108,547,0,18.05,27.60,1.8819,15.02,2.9594,0.3987,,,
38,2023/01/02 14:00,2,2,0,22.74,74.27,20.28,5315,605,0,18.13,27.57,1.8928,15.00,2.9794,0.4010,,,
39,2023/01/02 15:00,,,,18.92,77.06,16.25,2381,703,0,18.68,27.61,1.8629,15.02,2.9281,0.3959,,,
40,2023/01/02 16:00,,,,19.07,79.87,16.39,309,708,0,18.67,27.66,1.8674,15.05,2.9303,0.3973,,,
41,2023/01/02 17:00,,,,19.26,80.98,16.57,1,764,0,18.69,27.62,1.8703,15.03,2.9389,0.3977,,,
42,2023/01/02 18:00,,,,17.14,82.22,14.61,0,817,0,18.90,27.60,1.8755,15.02,2.9493,0.3989,,,
43,2023/01/02 19:00,1,0,1,13.28,81.47,11.56,0,764,0,18.67,27.64,1.8962,15.04,2.9774,0.4033,,,
44,2023/01/02 20:00,1,1,0,11.42,81.63,10.29,0,747,0,18.37,27.56,1.8606,14.99,2.9299,0.3945,,,
45,2023/01/02 21:00,,,,10.68,81.98,9.83,0,755,0,18.43,27.57,1.8845,15.00,2.9659,0.3998,,,
46,2023/01/02 22:00,,,,10.38,82.54,9.64,0,770,0,18.46,27.50,1.8836,14.96,2.9723,0.3990,,,
47,2023/01/02 23:00,,,,10.88,83.23,9.95,0,769,0,18.10,27.43,1.8836,14.91,2.9796,0.3978,,,
48,2023/01/03 00:00,,,,10.93,83.20,9.98,0,756,0,17.90,27.52,1.8780,14.97,2.9610,0.3970,,,
49,2023/01/03 01:00,,,,11.03,82.99,10.05,0,748,0,17.85,27.52,1.8856,14.97,2.9731,0.3985,,,
50,2023/01/03 02:00,,,,10.78,82.62,9.89,0,738,0,17.70,27.46,1.8793,14.93,2.9704,0.3963,,,
51,2023/01/03 03:00,2,2,0,10.74,82.18,9.86,0,759,0,17.48,27.36,1.8866,14.87,2.9922,0.3966,,,
52,2023/01/03 04:00,,,,10.75,82.33,9.87,0,773,0,17.52,27.36,1.8807,14.87,2.9825,0.3955,,,
53,2023/01/03 05:00,,,,10.96,82.05,10.00,0,775,0,17.23,27.32,1.8922,14.84,3.0059,0.3969,,,
54,2023/01/03 06:00,1,1,0,12.00,83.08,10.67,29,795,0,17.13,27.31,1.9059,14.84,3.0284,0.3996,,,
55,2023/01/03 07:00,,,,12.97,84.40,11.33,935,809,0,16.94,27.27,1.9131,14.81,3.0443,0.4004,,,
56,2023/01/03 08:00,,,,19.38,77.26,16.69,5170,758,0,16.99,27.30,1.9148,14.83,3.0440,0.4010,,,
57,2023/01/03 09:00,2,2,0,25.17,65.96,23.28,8499,633,0,16.90,27.36,1.9125,14.87,3.0333,0.4010,,,
58,2023/01/03 10:00,1,1,0,26.35,67.99,24.87,6428,584,0,17.19,27.42,1.9119,14.90,3.0263,0.4019,,,
59,2023/01/03 11:00,21,18,3,27.03,71.86,25.81,4407,548,0,17.02,27.40,1.8906,14.89,2.9940,0.3970,,,
60,2023/01/03 12:00,19,18,1,27.12,69.26,25.94,5297,560,0,17.69,27.52,1.9038,14.97,3.0021,0.4020,,,
61,2023/01/03 13:00,1,1,0,28.98,66.33,28.74,6165,568,0,17.83,27.50,1.8944,14.96,2.9895,0.4002,,,
62,2023/01/03 14:00,1,1,0,28.42,68.27,27.86,6617,529,0,18.29,27.54,1.8657,14.98,2.9399,0.3952,,,
63,2023/01/03 15:00,1,1,0,25.27,69.17,23.41,3946,435,0,18.57,27.58,1.8745,15.00,2.9498,0.3979,,,
64,2023/01/03 16:00,,,,19.65,77.99,16.96,603,471,0,18.76,27.61,1.8883,15.03,2.9675,0.4016,,,
65,2023/01/03 17:00,,,,17.54,82.46,14.96,1,564,0,18.66,27.63,1.8731,15.04,2.9414,0.3983,,,
66,2023/01/03 18:00,,,,16.57,82.53,14.12,0,629,0,18.88,27.59,1.8683,15.01,2.9384,0.3973,,,
67,2023/01/03 19:00,,,,13.34,81.49,11.60,0,675,0,18.82,27.58,1.8767,15.00,2.9535,0.3989,,,
68,2023/01/03 20:00,,,,11.51,82.00,10.35,0,709,0,18.52,27.58,1.8876,15.01,2.9698,0.4007,,,
69,2023/01/03 21:00,,,,10.67,81.51,9.82,0,740,0,18.29,27.56,1.8781,14.99,2.9572,0.3981,,,
70,2023/01/03 22:00,,,,10.50,81.98,9.71,0,766,0,18.31,27.56,1.8696,15.00,2.9434,0.3963,,,
71,2023/01/03 23:00,,,,10.54,82.18,9.74,0,785,0,18.12,27.44,1.8779,14.92,2.9694,0.3967,,,
72,2023/01/04 00:00,,,,10.65,82.43,9.81,0,788,0,18.04,27.51,1.8721,14.96,2.9531,0.3959,,,
73,2023/01/04 01:00,,,,10.61,82.53,9.78,0,791,0,17.78,27.44,1.9016,14.92,3.0074,0.4010,,,
74,2023/01/04 02:00,,,,10.91,82.77,9.97,0,791,0,17.80,27.40,1.8984,14.89,3.0070,0.4000,,,
75,2023/01/04 03:00,1,1,0,10.87,83.12,9.94,0,774,0,17.40,27.37,1.9077,14.88,3.0242,0.4010,,,
76,2023/01/04 04:00,,,,10.77,83.34,9.88,0,757,0,17.11,27.30,1.8912,14.83,3.0062,0.3964,,,
77,2023/01/04 05:00,,,,11.07,83.54,10.07,0,747,0,17.24,27.32,1.9067,14.84,3.0282,0.4001,,,
78,2023/01/04 06:00,,,,11.96,83.68,10.65,31,755,0,17.14,27.34,1.8918,14.85,3.0031,0.3968,,,
79,2023/01/04 07:00,,,,13.16,84.63,11.47,985,769,0,17.13,27.32,1.8823,14.84,2.9903,0.3947,,,
80,2023/01/04 08:00,,,,19.19,80.08,16.50,4959,682,0,16.83,27.33,1.9047,14.84,3.0248,0.3989,,,
81,2023/01/04 09:00,1,1,0,24.96,67.14,23.00,8457,468,0,16.68,27.32,1.8984,14.84,3.0158,0.3973,,,
82,2023/01/04 10:00,1,1,0,25.78,69.53,24.09,6440,452,0,17.21,27.33,1.8812,14.85,2.9866,0.3948,,,
83,2023/01/04 11:00,14,14,0,27.05,76.21,25.84,4467,447,0,17.18,27.39,1.8876,14.89,2.9905,0.3965,,,
84,2023/01/04 12:00,12,12,0,27.26,71.83,26.15,5384,540,0,17.79,27.51,1.8767,14.96,2.9604,0.3964,,,
85,2023/01/04 13:00,,,,29.48,68.18,29.53,6238,556,0,17.90,27.57,1.8657,15.00,2.9369,0.3948,,,
86,2023/01/04 14:00,,,,27.69,70.65,26.77,6429,573,0,18.31,27.49,1.8883,14.95,2.9812,0.3996,,,
87,2023/01/04 15:00,,,,22.67,71.82,20.20,2320,527,0,18.41,27.58,1.9005,15.01,2.9899,0.4032,,,
88,2023/01/04 16:00,,,,19.48,77.39,16.79,628,573,0,18.53,27.54,1.8634,14.98,2.9368,0.3952,,,
89,2023/01/04 17:00,,,,17.59,82.53,15.01,1,655,0,18.70,27.55,1.8870,14.99,2.9725,0.4006,,,
90,2023/01/04 18:00,,,,16.94,82.32,14.44,0,712,0,18.62,27.59,1.8857,15.01,2.9664,0.4005,,,
91,2023/01/04 19:00,,,,13.44,81.72,11.67,0,719,0,18.69,27.55,1.8683,14.99,2.9424,0.3966,,,
92,2023/01/04 20:00,1,1,0,11.18,81.31,10.14,0,733,0,18.70,27.57,1.8697,15.00,2.9428,0.3971,,,
93,2023/01/04 21:00,,,,10.14,81.66,9.49,0,758,0,18.24,27.50,1.8862,14.96,2.9760,0.3992,,,
94,2023/01/04 22:00,,,,10.44,82.43,9.67,0,787,0,18.39,27.46,1.8920,14.93,2.9898,0.4003,,,
95,2023/01/04 23:00,,,,10.35,82.44,9.62,0,800,0,18.20,27.50,1.8962,14.96,2.9918,0.4012,,,
96,2023/01/05 00:00,,,,10.54,82.49,9.74,0,814,0,18.00,27.48,1.8873,14.94,2.9803,0.3988,,,
97,2023/01/05 01:00,,,,10.62,82.31,9.79,0,822,0,17.64,27.38,1.8906,14.88,2.9962,0.3979,,,
98,2023/01/05 02:00,1,1,0,10.29,81.88,9.59,0,835,0,17.49,27.34,1.8775,14.85,2.9805,0.3945,,,
99,2023/01/05 03:00,1,1,0,10.68,82.35,9.83,0,852,0,17.50,27.33,1.8850,14.85,2.9932,0.3960,,,
100,2023/01/05 04:00,,,,10.46,82.27,9.69,0,851,0,17.45,27.31,1.8764,14.84,2.9812,0.3940,,,
101,2023/01/05 05:00,,,,10.83,82.61,9.92,0,856,0,17.16,27.30,1.8900,14.83,3.0044,0.3962,,,
102,2023/01/05 06:00,1,1,0,11.72,83.11,10.49,31,881,0,17.13,27.32,1.9128,14.84,3.0381,0.4011,,,
103,2023/01/05 07:00,,,,12.67,84.23,11.13,885,896,0,16.95,27.26,1.8983,14.80,3.0218,0.3972,,,
104,2023/01/05 08:00,1,1,0,18.82,80.49,16.15,4738,848,0,17.04,27.28,1.8772,14.82,2.9860,0.3932,,,
105,2023/01/05 09:00,,,,24.92,66.34,22.95,8326,682,0,16.75,27.21,1.9035,14.77,3.0353,0.3975,,,
106,2023/01/05 10:00,,,,26.55,70.10,25.14,6371,602,0,17.16,27.35,1.9000,14.86,3.0145,0.3987,,,
107,2023/01/05 11:00,10,9,1,26.67,71.75,25.31,4642,545,0,17.24,27.32,1.8879,14.84,2.9984,0.3961,,,
108,2023/01/05 12:00,12,11,1,27.16,70.52,26.00,5335,574,0,17.43,27.40,1.8869,14.89,2.9885,0.3969,,,
109,2023/01/05 13:00,,,,28.85,67.50,28.53,6512,549,0,17.99,27.45,1.8965,14.92,2.9987,0.4004,,,
110,2023/01/05 14:00,,,,28.25,69.42,27.61,5889,589,0,18.02,27.49,1.8650,14.95,2.9438,0.3942,,,
111,2023/01/05 15:00,,,,24.49,69.05,22.40,4006,553,0,18.55,27.57,1.8735,15.00,2.9491,0.3976,,,
112,2023/01/05 16:00,,,,19.28,76.15,16.59,732,563,0,18.55,27.57,1.8573,15.00,2.9235,0.3942,,,
113,2023/01/05 17:00,,,,17.49,82.16,14.92,1,648,0,18.73,27.57,1.8650,15.00,2.9355,0.3962,,,
114,2023/01/05 18:00,,,,16.74,82.35,14.27,0,701,0,18.75,27.58,1.8619,15.00,2.9299,0.3956,,,
115,2023/01/05 19:00,1,1,0,13.04,81.23,11.39,0,729,0,18.80,27.60,1.8726,15.02,2.9440,0.3982,,,
116,2023/01/05 20:00,,,,10.89,81.29,9.96,0,751,0,18.51,27.54,1.8704,14.98,2.9472,0.3966,,,
117,2023/01/05 21:00,,,,10.09,81.69,9.46,0,774,0,18.44,27.50,1.8682,14.95,2.9485,0.3957,,,
118,2023/01/05 22:00,,,,10.41,82.20,9.66,0,805,0,18.37,27.53,1.8706,14.97,2.9490,0.3963,,,
119,2023/01/05 23:00,,,,10.40,82.21,9.65,0,831,0,18.00,27.49,1.8660,14.95,2.9455,0.3944,,,
120,2023/01/06 00:00,,,,10.39,82.14,9.65,0,848,0,17.99,27.39,1.8908,14.89,2.9954,0.3987,,,
121,2023/01/06 01:00,3,3,0,10.30,81.96,9.59,0,862,0,17.72,27.37,1.8784,14.87,2.9786,0.3954,,,
122,2023/01/06 02:00,,,,10.62,81.84,9.79,0,880,0,17.57,27.32,1.8896,14.84,3.0020,0.3970,,,
123,2023/01/06 03:00,1,1,0,10.16,81.18,9.51,0,890,0,17.31,27.38,1.9033,14.88,3.0168,0.4000,,,
124,2023/01/06 04:00,,,,10.65,81.39,9.81,0,906,0,17.21,27.28,1.8786,14.81,2.9889,0.3937,,,
125,2023/01/06 05:00,,,,10.71,81.15,9.84,0,921,0,16.92,27.32,1.8739,14.84,2.9771,0.3926,,,
126,2023/01/06 06:00,,,,11.97,81.27,10.65,24,949,0,16.96,27.25,1.9058,14.80,3.0350,0.3987,,,
127,2023/01/06 07:00,,,,12.85,82.99,11.25,894,962,0,16.95,27.29,1.8839,14.82,2.9956,0.3945,,,
128,2023/01/06 08:00,,,,19.07,77.65,16.39,5133,906,0,16.81,27.36,1.8927,14.87,3.0015,0.3967,,,
129,2023/01/06 09:00,,,,25.15,69.52,23.25,8170,734,0,16.88,27.26,1.9084,14.80,3.0378,0.3992,,,
130,2023/01/06 10:00,,,,27.17,71.35,26.02,6821,650,0,16.87,27.31,1.9035,14.83,3.0246,0.3986,,,
131,2023/01/06 11:00,4,4,0,28.04,74.00,27.30,5509,571,0,17.05,27.40,1.8782,14.89,2.9749,0.3944,,,
132,2023/01/06 12:00,6,6,0,28.03,72.91,27.28,6662,581,0,17.41,27.40,1.8870,14.89,2.9891,0.3969,,,
133,2023/01/06 13:00,1,1,0,29.22,72.64,29.11,9340,542,0,17.90,27.42,1.8766,14.91,2.9697,0.3958,,,
134,2023/01/06 14:00,,,,26.81,77.87,25.51,7222,577,0,18.34,27.50,1.8508,14.96,2.9204,0.3919,,,
135,2023/01/06 15:00,,,,24.76,78.27,22.74,4458,560,0,18.46,27.60,1.8659,15.02,2.9342,0.3961,,,
136,2023/01/06 16:00,,,,19.59,82.27,16.90,404,576,0,18.80,27.58,1.8666,15.00,2.9374,0.3967,,,
137,2023/01/06 17:00,,,,18.28,84.43,15.64,1,659,0,18.93,27.57,1.8600,15.00,2.9274,0.3955,,,
138,2023/01/06 18:00,,,,17.64,83.99,15.05,0,714,0,18.97,27.62,1.8601,15.03,2.9226,0.3960,,,
139,2023/01/06 19:00,,,,14.64,83.56,12.57,0,739,0,18.91,27.58,1.8454,15.00,2.9040,0.3924,,,
140,2023/01/06 20:00,,,,13.03,84.45,11.38,0,759,0,18.50,27.57,1.8694,15.00,2.9420,0.3967,,,
141,2023/01/06 21:00,,,,12.16,84.21,10.78,0,773,0,18.80,27.55,1.8626,14.99,2.9339,0.3956,,,
142,2023/01/06 22:00,,,,11.44,84.10,10.30,0,791,0,18.46,27.49,1.8845,14.95,2.9748,0.3991,,,
143,2023/01/06 23:00,,,,11.39,84.65,10.27,0,799,0,18.17,27.49,1.8784,14.95,2.9650,0.3973,,,
144,2023/01/07 00:00,,,,11.21,85.05,10.16,0,799,0,18.01,27.54,1.8720,14.98,2.9498,0.3961,,,
145,2023/01/07 01:00,,,,10.99,85.29,10.02,0,813,0,17.86,27.49,1.8657,14.95,2.9457,0.3940,,,
146,2023/01/07 02:00,,,,10.48,84.68,9.70,0,822,0,17.80,27.33,1.8884,14.85,2.9986,0.3973,,,
147,2023/01/07 03:00,,,,11.12,85.52,10.10,0,837,0,17.65,27.37,1.8922,14.87,3.0006,0.3981,,,
148,2023/01/07 04:00,,,,10.58,85.23,9.76,0,826,0,17.43,27.31,1.8811,14.83,2.9893,0.3949,,,
149,2023/01/07 05:00,1,1,0,10.60,85.46,9.77,0,837,0,17.32,27.28,1.8829,14.82,2.9951,0.3948,,,
150,2023/01/07 06:00,,,,12.25,85.49,10.84,27,859,0,17.10,27.30,1.9030,14.83,3.0248,0.3988,,,
151,2023/01/07 07:00,,,,13.31,85.01,11.57,925,871,0,17.10,27.34,1.8922,14.86,3.0028,0.3969,,,
152,2023/01/07 08:00,,,,19.61,77.68,16.92,5713,799,0,17.17,27.28,1.8872,14.81,3.0026,0.3954,,,
153,2023/01/07 09:00,,,,25.37,69.92,23.54,9724,645,0,17.18,27.30,1.8925,14.83,3.0081,0.3968,,,
154,2023/01/07 10:00,,,,27.26,72.52,26.14,6774,595,0,17.31,27.26,1.8774,14.80,2.9892,0.3934,,,
155,2023/01/07 11:00,8,8,0,27.90,74.65,27.09,5155,571,0,17.46,27.44,1.8910,14.92,2.9903,0.3982,,,
156,2023/01/07 12:00,7,7,0,28.48,72.78,27.97,6144,577,0,17.85,27.44,1.8723,14.91,2.9616,0.3949,,,
157,2023/01/07 13:00,1,1,0,29.85,71.08,30.12,6891,565,0,18.08,27.50,1.8685,14.96,2.9486,0.3951,,,
158,2023/01/07 14:00,1,1,0,27.90,74.77,27.08,5585,586,0,18.29,27.59,1.8568,15.01,2.9205,0.3938,,,
159,2023/01/07 15:00,,,,25.61,74.80,23.85,4039,574,0,18.86,27.58,1.8656,15.01,2.9353,0.3966,,,
160,2023/01/07 16:00,1,0,1,19.95,79.44,17.26,562,578,0,18.98,27.54,1.8561,14.98,2.9244,0.3945,,,
161,2023/01/07 17:00,,,,17.99,82.95,15.37,1,661,0,19.08,27.62,1.8474,15.03,2.9025,0.3935,,,
162,2023/01/07 18:00,,,,17.36,82.49,14.80,0,723,0,18.63,27.58,1.8676,15.01,2.9388,0.3966,,,
163,2023/01/07 19:00,,,,13.87,82.16,11.98,0,752,0,18.82,27.57,1.8618,15.00,2.9301,0.3957,,,
164,2023/01/07 20:00,,,,11.83,82.32,10.56,0,781,0,18.95,27.60,1.8631,15.02,2.9299,0.3964,,,
165,2023/01/07 21:00,1,1,0,10.66,82.53,9.81,0,809,0,18.78,27.60,1.8675,15.02,2.9367,0.3970,,,
166,2023/01/07 22:00,,,,10.31,82.81,9.60,0,834,0,18.30,27.48,1.8919,14.94,2.9875,0.4003,,,
167,2023/01/07 23:00,,,,10.63,83.46,9.79,0,855,0,17.88,27.50,1.8882,14.96,2.9793,0.3989,,,
168,2023/01/08 00:00,,,,10.68,83.44,9.82,0,866,0,18.10,27.46,1.8746,14.93,2.9620,0.3961,,,
169,2023/01/08 01:00,,,,10.45,83.22,9.68,0,876,0,17.94,27.43,1.8637,14.91,2.9480,0.3933,,,
170,2023/01/08 02:00,,,,10.89,82.62,9.95,0,882,0,17.93,27.34,1.8792,14.85,2.9826,0.3957,,,
171,2023/01/08 03:00,,,,10.83,82.87,9.92,0,890,0,17.56,27.31,1.8777,14.83,2.9842,0.3944,,,
172,2023/01/08 04:00,,,,10.95,82.52,9.99,0,888,0,17.38,27.32,1.8884,14.84,2.9990,0.3965,,,
173,2023/01/08 05:00,,,,11.13,82.34,10.11,0,886,0,17.41,27.31,1.8686,14.83,2.9696,0.3922,,,
174,2023/01/08 06:00,,,,12.12,82.50,10.75,27,911,0,17.29,27.31,1.8916,14.84,3.0053,0.3969,,,
175,2023/01/08 07:00,,,,13.17,83.26,11.47,892,928,0,17.13,27.31,1.8927,14.84,3.0073,0.3968,,,
176,2023/01/08 08:00,,,,19.22,80.39,16.53,4565,876,0,17.14,27.29,1.8926,14.82,3.0097,0.3966,,,
177,2023/01/08 09:00,,,,25.27,70.99,23.41,8318,714,0,17.23,27.29,1.8915,14.82,3.0075,0.3966,,,
178,2023/01/08 10:00,,,,27.94,73.04,27.14,6469,619,0,17.06,27.34,1.8870,14.85,2.9955,0.3957,,,
179,2023/01/08 11:00,3,3,0,28.67,75.05,28.25,5185,556,0,17.42,27.33,1.8865,14.84,2.9959,0.3962,,,
180,2023/01/08 12:00,10,10,0,28.35,72.22,27.76,5836,575,0,17.64,27.37,1.8853,14.87,2.9893,0.3967,,,
181,2023/01/08 13:00,,,,29.92,71.58,30.24,6824,550,0,17.79,27.51,1.8657,14.96,2.9427,0.3941,,,
182,2023/01/08 14:00,1,1,0,28.85,73.33,28.53,6527,591,0,18.47,27.49,1.8523,14.95,2.9238,0.3923,,,
183,2023/01/08 15:00,,,,26.21,76.48,24.67,3932,602,0,18.54,27.56,1.8553,14.99,2.9216,0.3936,,,
184,2023/01/08 16:00,,,,19.87,80.93,17.18,589,604,0,19.10,27.49,1.8537,14.95,2.9259,0.3938,,,
185,2023/01/08 17:00,,,,18.38,84.40,15.73,1,691,0,18.99,27.59,1.8522,15.01,2.9134,0.3941,,,
186,2023/01/08 18:00,,,,18.15,84.94,15.52,0,755,0,19.10,27.58,1.8607,15.01,2.9279,0.3960,,,
187,2023/01/08 19:00,,,,15.70,84.37,13.40,0,770,0,18.87,27.60,1.8589,15.02,2.9227,0.3954,,,
188,2023/01/08 20:00,,,,13.43,84.30,11.66,0,753,0,18.68,27.59,1.8496,15.01,2.9093,0.3929,,,
189,2023/01/08 21:00,,,,12.31,83.18,10.88,0,745,0,18.93,27.56,1.8689,15.00,2.9425,0.3973,,,
190,2023/01/08 22:00,,,,11.48,82.91,10.33,0,756,0,18.67,27.58,1.8746,15.01,2.9494,0.3982,,,
191,2023/01/08 23:00,,,,10.73,83.29,9.86,0,776,0,18.71,27.53,1.8684,14.98,2.9449,0.3965,,,
192,2023/01/09 00:00,,,,10.64,83.77,9.80,0,795,0,18.31,27.44,1.8674,14.92,2.9531,0.3948,,,
193,2023/01/09 01:00,,,,10.77,83.55,9.88,0,821,0,18.23,27.38,1.8635,14.88,2.9531,0.3933,,,
194,2023/01/09 02:00,,,,10.73,83.81,9.85,0,838,0,17.69,27.35,1.8702,14.86,2.9678,0.3934,,,
195,2023/01/09 03:00,,,,11.10,83.90,10.09,0,845,0,17.58,27.38,1.8837,14.88,2.9861,0.3963,,,
196,2023/01/09 04:00,1,1,0,11.01,83.80,10.03,0,827,0,17.74,27.31,1.8935,14.83,3.0092,0.3980,,,
197,2023/01/09 05:00,1,1,0,11.08,83.68,10.07,0,831,0,17.44,27.31,1.8857,14.83,2.9968,0.3959,,,
198,2023/01/09 06:00,,,,12.64,83.36,11.11,28,856,0,17.39,27.32,1.8881,14.84,2.9986,0.3964,,,
199,2023/01/09 07:00,,,,13.61,83.96,11.79,934,870,0,17.14,27.33,1.8875,14.85,2.9972,0.3959,,,
200,2023/01/09 08:00,,,,23.42,72.79,21.08,6495,702,0,17.21,27.29,1.8703,14.82,2.9739,0.3921,,,
201,2023/01/09 09:00,1,1,0,27.72,72.11,26.82,5965,585,0,17.33,27.36,1.8770,14.87,2.9772,0.3943,,,
202,2023/01/09 10:00,11,9,2,28.99,73.00,28.75,5051,593,0,17.51,27.35,1.8665,14.86,2.9617,0.3924,,,
203,2023/01/09 11:00,6,6,0,29.42,69.22,29.42,6295,622,0,17.98,27.43,1.8704,14.91,2.9587,0.3947,,,
204,2023/01/09 12:00,2,2,0,29.62,69.29,29.75,7050,610,0,18.31,27.52,1.8706,14.97,2.9499,0.3961,,,
205,2023/01/09 13:00,,,,28.63,73.45,28.19,6402,643,0,18.41,27.48,1.8628,14.94,2.9416,0.3943,,,
206,2023/01/09 14:00,,,,26.30,75.86,24.79,3486,620,0,18.38,27.60,1.8641,15.02,2.9314,0.3956,,,
207,2023/01/09 15:00,,,,,,,,,,,,,,,,,,
208,2023/01/09 16:00,,,,20.14,81.30,17.45,365,613,0,18.97,27.61,1.8547,15.03,2.9150,0.3948,,,
209,2023/01/09 17:00,,,,18.55,84.17,15.89,1,684,0,19.10,27.60,1.8609,15.02,2.9260,0.3962,,,
210,2023/01/09 18:00,,,,17.73,84.44,15.13,0,748,0,19.11,27.64,1.8409,15.04,2.8905,0.3923,,,
211,2023/01/09 19:00,1,0,1,14.97,83.62,12.82,0,786,0,19.07,27.63,1.8400,15.04,2.8900,0.3920,,,
212,2023/01/09 20:00,,,,13.06,83.71,11.40,0,809,0,18.98,27.59,1.8512,15.01,2.9119,0.3938,,,
213,2023/01/09 21:00,1,1,0,11.82,83.55,10.56,0,830,0,18.74,27.52,1.8578,14.97,2.9300,0.3942,,,
214,2023/01/09 22:00,1,1,0,10.98,83.44,10.01,0,849,0,18.37,27.52,1.8492,14.97,2.9157,0.3917,,,
215,2023/01/09 23:00,,,,10.47,83.83,9.70,0,865,0,18.40,27.55,1.8506,14.99,2.9152,0.3923,,,
216,2023/01/10 00:00,,,,11.39,86.13,10.27,0,864,0,18.31,27.46,1.8721,14.93,2.9591,0.3959,,,
217,2023/01/10 01:00,,,,11.76,86.31,10.52,0,807,0,18.22,27.32,1.8669,14.84,2.9655,0.3934,,,
218,2023/01/10 02:00,1,1,0,11.26,86.25,10.19,0,756,0,18.15,27.32,1.8650,14.84,2.9619,0.3929,,,
219,2023/01/10 03:00,,,,10.76,85.87,9.87,0,734,0,17.52,27.40,1.8852,14.89,2.9854,0.3968,,,
220,2023/01/10 04:00,1,1,0,10.28,85.51,9.58,0,726,0,17.56,27.30,1.8732,14.83,2.9771,0.3934,,,
221,2023/01/10 05:00,,,,11.18,86.06,10.14,0,731,0,17.54,27.30,1.8925,14.83,3.0080,0.3974,,,
222,2023/01/10 06:00,,,,12.40,85.58,10.94,28,742,0,17.33,27.30,1.8745,14.83,2.9795,0.3933,,,
223,2023/01/10 07:00,1,1,0,13.73,85.44,11.88,925,754,0,17.47,27.27,1.8774,14.81,2.9871,0.3939,,,
224,2023/01/10 08:00,,,,20.24,72.43,17.55,5979,658,0,16.77,27.26,1.8878,14.80,3.0050,0.3947,,,
225,2023/01/10 09:00,,,,24.62,67.71,22.57,8225,550,0,17.42,27.34,1.8713,14.85,2.9704,0.3931,,,
226,2023/01/10 10:00,,,,25.78,71.78,24.09,6713,555,0,17.45,27.32,1.8864,14.84,2.9966,0.3961,,,
227,2023/01/10 11:00,7,7,0,26.38,73.79,24.91,5084,515,0,17.71,27.29,1.8685,14.82,2.9714,0.3926,,,
228,2023/01/10 12:00,3,3,0,26.71,72.22,25.36,5743,545,0,17.79,27.39,1.8720,14.89,2.9658,0.3944,,,
229,2023/01/10 13:00,2,2,0,27.73,69.51,26.83,6704,535,0,17.99,27.45,1.8560,14.92,2.9340,0.3919,,,
230,2023/01/10 14:00,,,,26.08,70.19,24.49,6942,532,0,18.05,27.47,1.8670,14.94,2.9489,0.3945,,,
231,2023/01/10 15:00,,,,22.12,70.68,19.58,3654,528,0,18.56,27.52,1.8642,14.97,2.9396,0.3953,,,
232,2023/01/10 16:00,,,,19.37,80.39,16.68,528,566,0,18.89,27.54,1.8575,14.98,2.9265,0.3946,,,
233,2023/01/10 17:00,,,,17.97,82.34,15.36,1,657,0,18.85,27.51,1.8649,14.96,2.9414,0.3958,,,
234,2023/01/10 18:00,,,,17.43,82.19,14.87,0,718,0,18.63,27.58,1.8501,15.00,2.9115,0.3929,,,
235,2023/01/10 19:00,,,,13.20,82.29,11.50,0,717,0,18.68,27.50,1.8723,14.96,2.9543,0.3970,,,
236,2023/01/10 20:00,,,,11.53,83.31,10.36,0,722,0,18.82,27.54,1.8514,14.98,2.9171,0.3932,,,
237,2023/01/10 21:00,,,,10.85,83.40,9.93,0,725,0,18.58,27.52,1.8616,14.97,2.9357,0.3947,,,
238,2023/01/10 22:00,,,,10.47,83.92,9.69,0,736,0,18.32,27.44,1.8658,14.92,2.9511,0.3944,,,
239,2023/01/10 23:00,,,,10.02,83.97,9.42,0,741,0,18.34,27.41,1.8816,14.90,2.9794,0.3975,,,
240,2023/01/11 00:00,1,1,0,10.37,84.73,9.63,0,767,0,18.07,27.37,1.8568,14.87,2.9441,0.3915,,,
241,2023/01/11 01:00,,,,10.60,84.59,9.78,0,776,0,17.62,27.31,1.8777,14.83,2.9841,0.3945,,,
242,2023/01/11 02:00,1,1,0,10.66,83.38,9.81,0,788,0,17.73,27.27,1.8739,14.81,2.9815,0.3936,,,
243,2023/01/11 03:00,1,1,0,10.80,83.21,9.90,0,808,0,17.40,27.33,1.8761,14.85,2.9791,0.3940,,,
244,2023/01/11 04:00,3,3,0,10.53,82.91,9.73,0,817,0,17.44,27.33,1.8679,14.84,2.9665,0.3923,,,
245,2023/01/11 05:00,,,,10.71,83.18,9.84,0,836,0,17.23,27.26,1.8965,14.80,3.0190,0.3973,,,
246,2023/01/11 06:00,,,,12.19,83.13,10.80,29,866,0,17.22,27.29,1.8714,14.83,2.9754,0.3924,,,
247,2023/01/11 07:00,,,,13.31,83.73,11.58,946,875,0,17.09,27.28,1.8716,14.82,2.9772,0.3920,,,
248,2023/01/11 08:00,,,,20.28,77.22,17.60,5632,801,0,16.90,27.15,1.8947,14.73,3.0285,0.3954,,,
249,2023/01/11 09:00,,,,25.47,68.80,23.67,8066,647,0,17.05,27.33,1.8914,14.85,3.0028,0.3966,,,
250,2023/01/11 10:00,,,,27.53,71.64,26.53,6102,611,0,16.89,27.25,1.8823,14.80,2.9974,0.3937,,,
251,2023/01/11 11:00,3,3,0,28.26,74.39,27.63,4628,574,0,17.41,27.25,1.8671,14.80,2.9736,0.3914,,,